Lapse_Rate
8.4 8.7 8.6 9.1 8.9 9.1 8.8 7.9 6.3 6.4 7.3 7.7 7.3 7.0 4.9 6.6 8.2 8.0 8.9 5.9 4.5 8.9 5.6 4.3 1.7 2.2 2.5 2.4 6.7 7.1 6.3 5.6 6.0 3.5 1.5 5.5 2.2 2.9 1.2 1.5 5.0 8.1 9.1
8.2 8.4 8.1 8.9 9.0 8.7 8.5 6.6 7.2 8.1 8.0 7.7 6.8 5.9 5.4 6.9 6.5 7.7 8.6 8.1 9.1 9.0 6.7 5.8 3.0 0.5 3.7 5.5 7.3 7.4 4.2 1.2 2.3 0.4 -0.0 3.3 2.5 0.5 1.2 0.4 2.5 2.5 8.2
7.8 8.2 8.2 8.5 8.7 8.4 8.3 5.9 6.1 7.7 7.4 7.9 5.7 4.9 6.1 6.2 7.2 6.7 8.0 8.3 9.1 9.3 6.9 7.8 4.2 4.8 1.4 0.7 5.1 5.2 1.6 1.3 1.6 4.9 -0.4 1.0 3.1 0.7 0.5 1.2 1.5 0.9 6.1
8.2 8.3 8.4 8.4 8.8 8.5 8.8 7.4 7.7 6.9 7.7 7.8 6.9 6.8 5.3 6.5 6.9 5.8 6.2 7.4 9.0 8.5 8.1 9.0 9.1 7.1 2.9 2.7 6.3 6.9 4.5 2.4 3.1 3.5 1.1 3.5 0.3 -0.1 1.8 0.7 0.4 0.5 6.7
8.0 7.4 8.5 8.3 8.6 8.7 8.9 8.1 7.8 7.2 7.9 7.3 7.1 7.4 7.6 3.4 2.8 6.0 6.8 8.1 8.1 8.1 8.3 9.1 9.2 8.8 7.5 7.1 6.7 7.1 6.8 6.2 5.9 5.0 2.7 2.0 5.7 4.2 5.0 5.4 4.0 5.8 4.5
8.0 8.3 8.5 8.5 8.2 8.8 8.9 8.2 7.5 6.6 7.3 7.5 6.9 6.7 6.8 3.3 2.6 6.1 6.7 7.1 7.0 7.1 7.1 8.8 8.1 8.3 7.3 7.4 6.9 6.9 7.1 6.3 6.5 5.8 5.3 6.3 5.6 5.9 6.0 5.6 5.2 5.4 4.2
6.6 7.4 8.1 8.4 8.3 7.7 8.5 7.8 7.0 6.7 7.5 7.7 7.7 6.9 7.4 6.8 7.0 7.6 7.8 8.3 6.8 6.6 7.1 7.7 7.6 7.7 7.4 7.7 7.6 7.1 6.2 6.5 6.5 6.9 6.1 6.0 6.4 6.3 6.6 6.2 5.4 5.5 5.2
6.8 8.0 8.2 8.0 7.9 8.0 8.3 7.8 7.1 6.5 7.4 8.3 7.5 7.1 6.8 7.4 7.9 8.0 7.6 8.1 4.9 5.1 2.9 5.3 8.7 8.0 8.2 7.8 8.4 7.4 7.3 5.6 4.7 4.1 7.2 6.2 5.6 5.8 6.2 6.6 6.1 5.1 5.4
7.7 6.7 7.9 8.3 8.1 8.0 8.0 7.7 6.6 6.8 7.5 8.6 7.8 7.2 7.4 7.8 8.0 8.1 7.0 7.2 4.8 4.6 2.9 3.6 5.9 7.3 7.7 6.8 6.9 7.4 7.0 6.3 6.5 6.7 7.1 7.1 6.1 6.6 6.2 6.9 6.4 6.2 5.5
3.7 7.9 7.9 8.2 8.4 8.7 8.7 8.4 6.9 7.2 7.9 8.7 8.4 8.3 7.5 7.1 7.5 7.4 4.4 7.1 4.3 3.5 4.7 4.3 7.0 8.0 8.3 7.7 7.3 7.2 7.6 7.3 6.1 7.3 6.1 6.0 6.8 6.8 6.1 5.9 5.5 6.2 5.5
3.0 7.7 7.5 7.6 8.3 8.6 8.4 8.8 8.2 7.9 8.6 8.7 8.2 8.2 8.4 8.7 7.9 7.2 6.0 7.8 7.2 3.7 5.8 7.3 6.9 7.8 8.1 8.1 7.2 6.4 5.9 6.5 6.7 6.4 6.6 7.5 7.2 6.8 6.4 6.4 5.9 6.1 6.0
3.5 2.8 1.1 5.3 7.0 7.5 7.6 8.2 8.3 8.3 8.6 8.3 8.0 7.9 8.2 8.3 8.5 7.6 8.3 8.2 7.2 7.2 8.1 7.9 8.0 7.1 7.6 7.7 7.2 6.7 7.0 6.9 6.6 6.1 6.0 6.7 8.5 7.2 6.8 6.5 5.6 5.9 6.0
3.9 2.9 2.3 3.9 6.6 6.8 6.2 4.7 6.2 8.6 8.4 8.3 8.4 8.2 8.5 8.5 8.4 7.3 7.7 7.3 6.9 7.4 8.3 7.5 7.3 6.9 6.7 7.1 7.8 7.6 7.3 7.0 7.3 6.5 6.4 7.3 7.0 6.3 6.3 5.8 5.6 5.5 5.2
4.3 3.7 2.6 3.6 7.5 6.1 6.8 3.7 3.7 5.0 8.1 8.2 8.2 7.9 8.3 8.5 8.6 7.7 8.2 8.8 8.5 8.4 8.1 8.1 8.1 7.5 7.3 7.1 8.1 7.9 7.0 7.1 7.5 7.5 6.4 7.2 7.0 6.7 5.9 6.0 5.1 6.2 5.9
4.9 6.2 6.5 3.8 5.0 8.1 7.7 8.1 6.6 2.6 7.1 7.1 7.8 7.3 7.4 7.9 8.0 7.3 7.2 7.5 8.0 8.1 7.5 7.5 8.0 7.8 7.0 7.5 7.0 7.1 7.4 7.7 7.4 6.6 6.5 6.7 6.1 3.8 4.6 5.8 5.4 5.9 5.4
6.7 4.2 4.9 3.1 4.6 4.0 3.8 6.0 7.4 7.9 6.8 6.3 5.9 6.3 6.4 7.3 7.4 7.6 7.8 7.4 7.0 6.5 6.5 6.3 6.5 6.7 7.5 1.8 2.4 4.4 7.2 7.4 7.2 6.5 6.9 6.4 5.1 3.1 2.1 3.5 2.9 4.1 5.8
5.9 5.9 5.3 5.4 5.9 4.8 3.5 2.9 4.8 8.0 7.9 6.7 6.1 6.4 6.6 7.5 7.1 6.1 6.3 6.4 6.4 6.2 6.0 6.1 6.5 6.2 6.4 1.6 2.5 3.4 5.8 6.7 6.8 6.9 7.0 7.2 8.3 6.6 6.6 2.2 1.5 1.8 2.6
5.7 5.4 5.7 5.6 6.2 5.1 3.1 4.3 3.6 3.4 6.7 6.6 6.5 5.4 6.2 6.4 7.2 6.3 5.8 5.7 5.5 5.8 5.5 6.3 6.2 6.1 5.4 1.4 1.8 1.5 3.8 5.3 5.9 6.6 5.4 4.1 5.2 0.9 1.9 4.2 5.7 6.2 3.0
6.6 6.3 6.3 5.4 5.1 4.4 4.0 3.7 4.4 5.0 5.5 5.2 5.2 6.6 6.0 4.6 5.7 5.8 6.1 6.3 6.2 5.7 5.7 5.7 5.7 5.9 5.2 0.3 0.1 1.9 4.5 5.2 5.4 3.3 0.3 2.1 3.1 -0.4 -0.2 3.1 4.5 5.0 3.0
8.1 8.1 7.2 5.7 4.5 3.5 5.1 6.6 5.9 6.2 7.0 6.1 3.9 3.1 5.8 5.7 5.6 5.8 6.1 6.5 5.6 4.0 3.0 -0.1 -0.5 0.4 0.3 -2.0 -1.2 0.9 3.9 4.4 4.5 3.4 1.2 -0.9 -1.3 -1.1 -0.7 2.6 3.1 3.6 4.2
7.9 7.3 7.3 5.4 3.4 4.1 5.6 5.6 5.5 5.2 5.6 6.8 7.0 6.3 6.3 5.0 4.0 3.6 3.2 3.6 2.4 1.4 0.3 0.4 -0.3 -0.5 -0.9 -1.2 -1.7 -0.8 2.5 3.1 3.3 2.8 1.5 -0.1 -1.2 -1.5 -1.0 0.2 1.7 0.6 2.4
8.4 7.7 6.9 6.2 4.6 3.8 3.3 3.1 3.2 3.0 4.2 5.5 4.3 4.4 4.6 4.2 3.6 3.4 3.1 2.9 2.3 1.5 1.0 0.8 0.5 0.1 -0.6 -0.8 -1.4 -1.2 -0.2 2.3 3.1 2.0 0.8 -0.8 -1.8 -1.9 -1.2 -0.2 -0.3 0.6 2.5
8.5 8.5 8.0 6.8 6.4 5.1 3.5 2.8 2.3 3.6 3.9 3.8 3.0 3.5 3.6 3.5 3.7 5.0 4.8 4.5 4.6 4.3 3.7 3.3 2.9 2.1 1.1 0.3 -0.6 -0.8 -0.3 -0.2 0.5 0.6 -0.4 -1.3 -1.2 -0.5 -0.0 0.2 0.8 1.8 2.4
8.5 8.6 8.1 7.9 7.0 6.3 4.7 4.0 3.3 3.4 3.4 2.7 2.3 2.2 2.9 3.8 4.1 5.7 5.8 6.3 5.8 7.0 7.1 5.9 4.8 3.8 3.8 3.3 2.8 2.2 1.2 0.7 0.6 0.5 1.1 1.2 1.3 1.7 1.5 2.2 3.9 3.7 3.8
8.5 8.6 8.3 8.3 8.0 7.7 6.3 5.3 5.0 4.5 3.8 3.0 2.2 2.3 2.2 1.9 0.7 0.1 1.0 2.9 -0.1 -0.2 3.5 4.9 4.9 5.4 2.8 -1.0 -3.3 -0.5 1.0 1.1 0.1 2.1 2.0 2.5 2.7 3.9 3.8 3.6 2.9 2.8 2.3
8.5 8.4 8.5 8.6 8.4 7.9 7.4 7.7 6.9 5.9 5.6 5.2 5.1 4.2 4.1 4.5 4.3 3.7 1.8 -3.6 -3.0 -3.4 -3.6 -3.0 2.1 0.5 -1.2 -2.7 -3.1 -2.8 -2.0 -1.0 -0.5 3.0 2.9 3.5 3.7 3.8 3.9 4.0 3.4 3.2 4.7
Wind_Speed
18 17 15 15 17 14 10 9 9 6 5 3 4 5 6 7 4 7 7 23 25 2 11 6 12 15 8 13 3 3 5 4 4 8 9 15 14 13 12 16 21 2 1
16 18 17 16 18 16 13 10 8 7 5 1 2 2 2 4 3 5 3 5 1 3 13 1 17 18 8 15 5 3 4 4 10 4 8 7 6 9 7 13 13 17 6
20 17 17 17 17 17 14 11 9 7 6 3 2 2 2 4 4 5 5 4 3 4 13 7 18 11 7 8 6 8 5 1 5 8 5 3 4 3 5 7 5 16 9
20 17 18 15 17 16 15 15 13 12 8 4 3 2 4 2 1 4 2 3 5 4 7 2 2 3 10 8 4 6 4 3 10 9 7 6 5 4 1 6 8 14 3
18 10 20 16 18 16 13 14 11 10 7 7 4 2 2 5 7 4 6 4 2 3 9 2 3 2 4 5 6 3 3 3 2 1 4 9 6 7 1 2 6 4 4
19 23 18 19 16 17 15 15 13 11 7 6 6 6 5 10 8 8 3 4 6 5 7 4 5 4 4 4 4 4 5 5 3 3 5 4 3 2 2 3 5 0 4
11 12 18 16 17 17 17 16 15 12 10 11 9 7 7 8 9 4 4 2 3 3 5 2 3 2 4 4 2 1 5 4 4 5 4 4 5 4 0 2 3 3 2
12 24 18 19 17 19 17 19 17 14 11 10 9 7 7 6 5 5 3 0 2 4 8 7 4 4 4 4 3 3 3 5 5 8 5 3 5 5 3 1 2 4 3
13 13 19 19 16 18 16 16 18 15 14 12 9 8 6 7 6 2 4 3 3 1 5 10 11 3 2 4 3 3 4 4 4 6 5 4 4 4 4 5 2 1 3
13 13 19 19 17 19 17 15 18 16 14 13 11 10 10 9 7 2 7 5 6 5 5 12 9 4 3 3 4 4 5 3 4 6 5 5 4 5 5 5 6 2 2
25 15 7 16 18 16 18 16 17 17 14 13 12 10 10 10 8 6 11 8 4 10 11 4 6 5 4 3 2 4 7 5 5 7 7 4 5 4 4 4 3 5 3
6 10 15 7 15 14 16 16 16 16 14 13 10 11 10 10 11 9 6 5 5 5 5 5 2 4 5 5 4 5 6 5 6 7 6 7 3 3 4 4 5 5 5
10 10 15 19 12 12 9 7 5 16 16 13 12 11 10 11 9 9 8 7 8 7 5 3 4 4 4 6 5 4 5 6 6 6 8 6 3 3 4 4 3 3 3
10 6 15 19 8 9 8 13 11 6 14 14 14 11 10 10 8 6 4 4 4 4 4 5 4 5 4 6 6 5 5 6 6 3 6 7 6 5 6 5 5 5 2
11 5 5 13 20 2 5 2 12 11 10 10 11 12 11 8 8 7 8 7 6 6 7 6 5 5 6 7 5 6 7 6 4 4 5 7 5 3 5 4 5 5 3
12 10 8 8 13 9 9 9 5 4 7 5 5 3 10 10 6 5 6 7 7 7 6 6 6 6 7 4 1 0 2 2 3 5 5 6 7 7 7 6 5 4 4
9 7 4 3 2 3 7 6 7 2 3 4 3 2 1 6 6 6 4 5 4 4 6 7 8 8 7 5 4 3 4 4 4 4 4 5 5 5 3 5 4 4 2
7 6 4 4 2 3 6 5 4 5 3 5 2 2 3 4 4 5 5 6 6 6 7 6 6 7 3 5 3 1 3 5 6 5 7 6 7 8 7 8 5 3 5
5 5 4 4 1 4 6 6 4 3 3 5 6 4 3 4 5 5 5 5 5 5 4 5 6 7 1 6 6 4 3 3 5 7 8 7 7 11 10 4 8 6 4
6 4 6 5 4 4 3 2 6 4 3 3 7 7 6 6 0 2 3 2 4 7 8 9 9 11 7 11 8 6 2 2 3 5 6 15 9 11 12 7 6 6 4
7 8 7 6 4 5 5 2 9 7 6 5 6 8 7 5 5 6 7 5 6 7 7 7 7 9 8 8 8 8 3 2 3 3 3 4 10 11 13 12 6 5 4
9 9 7 7 5 7 9 9 10 8 7 9 7 8 7 7 6 7 6 6 7 7 6 6 7 6 8 10 10 10 8 4 3 5 3 4 10 10 9 7 9 10 6
5 9 9 9 8 8 7 7 4 6 7 8 9 7 7 7 5 5 5 5 6 5 5 5 5 4 3 3 8 11 11 11 7 4 5 6 7 6 5 8 8 6 4
6 6 9 9 9 8 8 7 6 5 7 7 7 6 6 7 7 5 6 5 5 3 4 5 4 3 3 4 4 4 5 7 7 5 3 0 2 2 4 2 3 5 5
6 7 7 8 9 9 9 8 7 8 8 8 7 7 6 6 8 8 5 5 5 3 3 5 5 4 3 2 2 4 4 3 4 5 4 4 4 4 4 5 5 4 6
6 5 7 7 8 8 7 8 8 7 8 8 6 6 4 3 6 7 7 11 9 9 11 11 8 5 8 4 2 5 5 5 5 3 3 3 3 3 3 3 3 3 3
Wind_Direction
158 167 166 151 135 145 155 120 127 148 138 177 130 151 190 242 157 137 177 123 240 30 60 101 53 20 247 239 78 346 347 311 88 44 10 6 352 17 357 338 338 182 276
165 158 158 161 150 148 163 126 137 154 177 166 98 96 210 261 188 98 140 225 117 342 95 95 124 224 300 268 38 346 32 2 18 72 46 359 332 329 339 11 338 321 30
159 162 168 167 153 152 152 147 141 165 224 156 218 162 286 268 121 164 182 223 188 230 145 219 129 200 103 290 310 71 81 167 24 1 144 183 192 271 341 0 305 279 289
183 172 166 171 159 155 161 154 161 172 195 203 232 236 196 267 121 244 112 156 221 344 320 166 79 121 160 228 32 29 133 150 108 273 267 323 160 175 247 260 257 256 292
169 182 168 167 156 154 163 154 165 167 197 189 204 185 144 41 309 322 149 145 156 264 284 147 9 348 330 14 3 354 356 317 12 321 169 214 214 32 157 260 189 211 245
198 183 169 166 155 157 165 156 160 167 201 187 197 204 107 153 251 215 193 187 192 195 225 195 168 47 353 21 337 3 338 346 357 328 342 19 314 13 1 357 338 41 243
165 185 168 165 162 161 165 153 160 167 183 199 194 203 195 206 229 257 204 296 349 31 222 213 121 163 211 249 294 352 302 305 338 349 336 322 329 319 124 357 326 360 20
194 191 169 163 168 161 163 158 163 167 184 203 188 206 216 224 213 213 278 135 359 41 46 324 207 198 259 286 261 268 260 69 76 321 282 311 297 299 317 164 51 332 335
217 211 171 165 167 162 164 157 159 167 179 201 188 197 214 246 243 238 237 133 106 201 17 308 287 205 236 278 319 299 320 334 210 241 255 247 290 317 354 349 329 76 332
285 215 176 168 168 162 162 162 159 169 181 196 188 192 197 228 247 272 13 298 89 50 201 213 269 295 253 296 335 306 308 345 325 307 36 359 336 343 338 32 340 345 202
247 231 225 174 164 175 162 166 166 168 181 193 184 195 198 212 219 222 185 227 152 180 240 222 255 289 294 240 282 299 302 314 298 294 303 278 283 316 324 351 329 312 32
29 330 336 277 164 173 163 170 172 166 181 180 176 185 190 207 208 219 227 186 200 240 244 246 225 284 304 293 222 250 295 297 269 271 296 284 295 343 299 309 354 357 357
49 346 335 326 160 163 149 111 179 174 171 167 172 179 194 200 225 193 208 200 197 224 247 232 205 241 265 288 276 251 258 278 270 271 288 267 249 309 293 303 312 324 340
81 22 313 308 191 153 156 149 189 258 164 170 170 176 185 194 206 212 220 219 204 226 262 263 231 207 233 268 262 246 232 249 275 296 292 282 287 254 251 262 256 274 276
82 57 357 10 349 309 51 210 150 147 216 170 171 170 178 193 198 189 192 199 207 206 207 223 245 200 225 242 253 251 243 257 252 273 284 288 319 37 291 233 258 272 289
69 62 38 59 314 344 9 344 165 110 99 107 53 77 169 184 189 202 202 204 195 188 209 239 243 221 232 108 357 235 263 295 291 286 278 278 269 239 262 257 252 257 255
82 86 101 134 164 30 40 12 348 204 158 180 179 189 4 197 202 205 202 227 244 272 246 231 239 240 237 168 205 299 297 279 258 288 291 291 289 346 254 214 301 258 258
85 83 82 46 9 326 92 24 305 325 164 187 188 257 243 241 215 231 238 249 253 250 265 279 276 274 332 160 126 34 322 311 301 321 11 0 340 39 338 332 256 225 71
107 100 107 114 18 342 327 121 358 291 227 213 198 173 211 278 282 248 271 279 280 290 280 273 279 278 49 56 32 325 343 353 350 68 40 16 27 3 8 337 308 154 118
111 89 90 83 38 331 284 202 158 201 101 103 62 71 77 81 244 183 162 346 20 35 43 59 41 23 79 35 17 354 342 328 61 75 80 48 31 10 25 31 26 47 43
117 93 79 70 38 353 26 127 84 63 19 86 93 95 93 93 90 63 58 66 68 75 73 74 62 52 33 28 42 14 34 335 59 70 64 45 29 28 35 46 42 44 6
118 106 84 73 65 52 49 48 45 8 45 71 60 64 62 65 66 73 77 82 88 86 88 86 75 64 60 45 38 53 48 32 76 84 76 67 61 49 42 47 40 35 35
101 109 100 88 69 72 79 70 42 23 62 72 77 70 69 65 68 109 125 120 129 122 112 102 103 101 98 67 54 57 73 70 81 88 108 117 91 93 79 66 56 49 52
114 103 103 102 96 88 95 98 101 88 95 92 89 80 71 79 54 48 24 47 28 50 125 112 115 118 101 83 75 74 71 68 89 97 96 209 214 137 100 72 19 18 27
116 117 118 108 99 102 100 96 123 126 113 108 105 98 96 88 83 67 36 59 46 17 7 51 46 83 82 88 33 60 68 65 74 57 35 33 30 33 58 73 66 39 58
128 126 113 112 110 102 90 110 126 118 108 101 106 114 107 134 129 108 87 50 59 45 51 48 85 78 96 134 84 64 63 70 40 82 77 88 58 68 47 37 56 57 28